SCP
0 0 0 0 0 0 0 0 0 -0 -0 0 0 0 0 0 0 0 0 0 0 0 0 0 0 0 0 0 0 0 0 0 0 0 0 0 0 0 0 0 0 0 0
0 0 0 0 0 0 0 -0 -0 -0 -0 -0 -0 0 0 -0 0 0 0 0 0 0 0 -0 -0 -0 0 0 0 0 -0 0 0 0 0 0 0 0 0 0 0 0 0
0 0 0 0 0 0 0 -0 -0 0 -0 -0 -0 0 -0 -0 0 0 0 0 0 0 0 -0 -0 0 -0 0 0 0 0 0 0 0 0 0 0 0 0 0 0 0 0
0 0 0 0 0 0 0 0 0 -0 -0 -0 0 0 0 0 0 0 0 0 0 0 0 0 -0 0 -0 0 0 0 0 0 0 0 0 0 0 0 0 0 0 0 0
0 0 0 0 0 -0 -0 0 0 0 0 -0 -0 -0 0 0 0 0 0 0 0 0 0 0 0 0 -0 0 0 0 0 0 0 0 0 0 0 0 0 0 0 0 0
0 0 0 0 0 0 -0 -0 0 0 0 -0 -0 -0 0 0 0 0 0 0 0 0 0 -0 -0 -0 -0 -0 -0 -0 0 0 0 0 0 0 0 0 0 0 0 0 0
-0 0 0 0 0 0 0 -0 0 0 0 -0 -0 0 0 0 0 0 0 0 0 0 0 0 0 0 -0 -0 -0 -0 -0 0 0 0 0 0 0 0 0 0 0 0 0
-0 -0 0 0 0 0 0 -0 -0 0 0 0 0 0 0 -0 0 -0 0 0 0 0 0 0 0 0 -0 -0 0 0 0 0 0 0 -0 -0 -0 -0 0 0 -0 -0 -0
-0 -0 0 0 0 0 0 0 0 0 0 0 0 0 0 -0 0 0 0 -0 0 0 0 0 0 -0 0 0 0 0 0 0 0 0 0 0 -0 -0 -0 -0 -0 -0 0
-0 -0 0 0 0 0 0 0 0 0 0 0 0 0 0 -0 0 0 0 0 0 0 0 0 -0 -0 0 0 0 0 0 0 0 0 0 0 0 0 -0 -0 0 0 0
-0 -0 -0 0 0 0 0 0 0 0 0 0 0 0 0 0 0 -0 0 0 -0 -0 -0 0 0 0 0 0 0 0 0 0 -0 -0 0 0 0 -0 0 0 0 0 0
-0 -0 -0 -0 -0 -0 -0 0 0 0 0 0 0 0 0 0 0 0 0 -0 0 -0 -0 -0 -0 0 0 0 0 -0 -0 -0 -0 -0 0 0 0 0 0 0 0 0 0
-0 -0 -0 -0 -0 -0 0 0 0 0 0 0 0 0 0 0 0 -0 -0 -0 -0 0 0 -0 -0 0 0 0 0 0 0 0 -0 -0 -0 -0 -0 0 0 0 0 0 0
-0 -0 -0 -0 -0 -0 0 0 0 0 0 0 0 0 0 0 0 0 0 -0 -0 -0 -0 -0 -0 -0 0 -0 -0 -0 -0 -0 0 0 -0 -0 0 0 0 0 0 0 0
-0 -0 -0 -0 -0 -0 0 0 0 0 0 0 0 0 0 0 0 -0 0 0 0 -0 -0 -0 -0 0 0 0 0 0 0 0 0 -0 -0 0 0 0 0 0 0 0 0
-0 -0 -0 -0 -0 -0 0 -0 -0 -0 0 -0 -0 -0 -0 -0 0 0 0 0 0 -0 0 0 0 0 0 0 0 0 0 0 -0 0 0 0 0 0 0 0 0 0 0
-0 -0 -0 -0 -0 -0 -0 -0 -0 -0 -0 0 0 0 0 0 0 -0 -0 0 -0 -0 0 0 0 0 0 0 0 0 -0 -0 -0 0 0 0 0 0 0 0 0 0 0
-0 -0 0 0 0 0 -0 -0 -0 -0 0 0 -0 0 0 0 -0 -0 -0 -0 0 -0 0 0 0 0 0 0 0 0 0 0 0 0 0 0 0 0 0 0 0 0 0
-0 0 0 0 0 0 0 -0 -0 -0 -0 -0 -0 -0 -0 -0 -0 -0 -0 0 0 0 0 0 -0 -0 -0 -0 -0 -0 0 0 0 0 0 0 0 0 0 0 0 0 0
0 0 0 0 0 0 0 -0 -0 -0 -0 -0 0 -0 0 0 0 0 0 0 0 0 -0 -0 -0 -0 -0 0 0 0 0 0 0 0 0 0 0 0 0 0 0 0 0
0 0 0 0 0 0 0 0 0 0 0 0 0 0 0 0 0 0 0 0 0 0 0 0 0 0 0 0 0 0 0 0 0 0 0 0 0 0 0 0 0 0 0
0 0 0 0 0 0 0 0 0 0 0 0 0 0 0 0 0 0 0 0 0 0 0 0 0 0 0 0 0 0 0 0 0 0 0 0 0 0 0 0 0 0 0
0 0 0 0 0 0 0 0 0 0 0 0 0 0 0 0 0 0 0 0 0 0 0 0 0 0 0 0 0 0 0 0 0 0 0 0 0 0 0 0 0 0 0
0 0 0 0 0 0 0 0 0 0 0 0 0 0 0 0 0 0 0 0 0 0 0 0 0 0 0 0 0 0 0 0 0 0 0 0 0 0 0 0 0 0 0
0 0 0 0 0 0 0 0 0 0 0 0 0 0 0 0 0 0 0 0 0 0 0 0 0 0 0 0 0 0 0 0 0 0 0 0 0 0 0 0 0 0 0
0 0 0 0 0 0 0 0 0 0 0 0 0 0 0 0 0 0 0 0 0 0 0 0 0 0 0 0 0 0 0 0 0 0 0 0 0 0 0 0 0 0 0
Wind_Speed_500mb
13 11 6 2 2 8 4 3 5 10 17 24 23 20 21 21 22 22 20 17 20 19 16 12 14 17 21 22 24 7 14 35 42 42 62 77 88 83 80 70 57 49 43
13 11 8 2 1 8 7 8 9 12 17 23 25 23 19 21 21 19 16 18 20 18 19 19 22 24 31 20 14 11 26 38 35 67 75 81 80 78 75 61 49 41 35
13 12 10 5 2 7 12 11 12 18 18 22 25 23 18 18 20 18 19 18 16 23 24 22 28 26 25 16 16 16 20 31 49 67 72 79 78 73 67 53 45 39 34
15 13 12 7 6 11 14 18 15 17 17 21 22 22 20 20 21 21 20 21 20 24 23 23 24 26 25 17 22 20 30 41 57 76 73 76 77 65 54 48 42 36 35
18 15 13 14 11 12 12 16 17 19 22 24 26 25 24 23 20 22 22 21 22 25 25 23 26 29 25 22 28 28 37 59 79 79 78 74 73 60 54 40 40 41 37
21 16 17 18 15 13 16 15 18 20 19 23 24 24 30 29 32 24 20 22 24 28 32 32 30 25 25 24 27 30 34 54 60 74 73 70 69 63 48 36 38 44 35
26 19 22 21 18 16 16 16 16 15 14 17 21 23 24 27 24 21 17 19 25 28 31 31 31 30 31 38 35 30 40 41 44 58 60 69 71 57 46 38 39 39 32
32 24 26 23 21 21 20 16 15 17 16 14 14 11 22 28 20 16 19 22 26 30 32 33 36 40 47 49 47 52 50 46 43 50 51 50 45 49 35 38 41 34 34
37 30 29 27 24 21 19 15 18 21 24 21 19 16 20 30 28 15 18 17 30 35 34 38 41 47 52 47 39 38 44 45 46 47 43 41 39 36 39 41 37 35 28
42 37 30 32 26 24 20 17 22 27 27 23 24 26 30 31 24 23 29 29 34 36 43 48 47 48 45 39 28 38 47 51 53 51 46 46 44 42 39 33 26 27 25
43 41 33 35 30 27 23 21 25 28 28 25 23 27 30 33 34 34 39 40 47 48 56 54 43 33 32 36 40 42 45 49 49 47 46 43 41 36 32 30 27 23 20
46 45 39 37 38 32 27 26 28 28 30 30 27 28 31 33 36 41 39 45 46 56 55 50 42 37 37 41 37 35 36 38 42 40 38 35 33 31 29 27 26 23 22
50 48 44 38 43 38 35 31 32 30 31 33 32 32 32 34 36 39 42 40 41 48 45 39 34 33 35 37 38 38 34 31 32 33 30 30 32 29 27 24 21 18 16
57 52 50 44 46 44 40 36 34 37 36 35 34 33 36 35 35 39 40 40 41 43 40 33 29 32 36 36 37 37 34 29 24 24 28 28 24 24 22 21 19 17 14
61 56 57 52 47 50 46 44 40 36 38 39 36 35 37 37 34 32 35 41 44 45 39 32 31 35 37 39 39 38 34 31 31 30 28 25 25 26 26 26 23 18 17
66 63 62 60 55 51 52 49 43 38 34 34 32 32 32 29 32 33 33 32 33 35 38 38 38 38 39 40 42 42 40 38 37 34 32 30 29 29 29 30 29 26 21
70 69 66 64 61 55 54 51 52 48 41 37 38 36 34 34 35 35 35 34 34 36 38 41 40 42 42 43 43 44 45 44 41 38 37 36 31 30 32 35 34 31 25
73 66 67 69 66 61 56 52 45 46 52 52 48 48 45 40 38 39 41 41 45 48 47 40 46 47 48 48 49 50 50 48 46 45 43 39 37 37 36 41 42 39 34
78 75 70 68 69 67 61 57 50 43 42 40 49 52 52 51 50 48 49 51 55 57 56 55 52 51 51 50 51 53 54 54 54 51 47 44 44 45 44 45 42 41 38
77 72 73 70 70 71 70 63 56 52 50 45 47 50 57 58 62 64 64 62 57 54 59 62 62 60 58 56 54 56 58 60 61 59 55 52 52 53 51 50 47 47 43
81 80 78 75 72 71 72 73 66 61 59 57 57 53 53 52 58 63 67 69 70 68 65 65 65 67 66 65 62 62 63 66 65 64 64 61 60 59 59 57 54 49 46
85 86 85 84 78 73 74 73 72 68 64 61 60 60 57 54 57 55 58 61 64 67 68 68 67 67 67 69 70 70 68 67 68 68 66 66 63 62 62 65 64 64 61
87 90 89 89 86 81 77 73 72 73 71 68 64 61 62 63 65 64 61 56 54 56 60 66 67 68 66 64 63 65 68 71 73 69 68 68 65 66 65 75 72 67 62
87 90 89 89 88 85 83 81 79 76 73 72 71 70 69 66 67 67 62 56 55 51 52 59 60 63 67 68 65 63 62 62 63 64 68 72 76 79 71 76 75 72 68
76 84 87 89 89 86 82 79 77 76 74 75 75 74 72 70 68 65 61 60 58 56 52 50 52 53 53 55 59 63 66 65 64 62 65 74 81 77 75 74 79 77 74
48 64 69 76 81 81 80 79 72 70 70 66 65 66 67 68 65 62 60 58 59 57 54 54 53 49 49 52 54 57 60 62 66 65 66 69 76 72 70 73 78 77 64
Wind_Direction_500mb
163 178 156 172 1 10 46 87 107 144 162 171 170 160 156 159 157 162 165 173 182 185 183 163 160 160 169 181 179 164 111 163 140 148 142 146 146 146 146 153 143 150 148
173 186 165 183 19 16 117 113 109 138 155 171 169 167 165 164 162 168 174 180 183 180 163 155 136 130 142 148 175 169 148 154 165 152 147 146 150 147 152 149 147 154 149
188 183 173 174 101 56 117 103 105 126 137 159 170 172 166 164 167 171 167 170 160 161 155 154 148 143 149 149 162 156 159 178 172 155 142 151 148 151 154 156 159 148 142
186 173 176 165 116 114 124 102 106 118 126 140 156 166 160 153 155 154 156 155 156 156 159 170 170 163 168 160 165 167 173 173 161 160 147 151 151 156 156 153 142 137 145
181 172 178 159 129 119 138 110 120 122 128 133 141 144 145 145 147 147 148 156 154 142 139 144 152 156 159 167 157 149 159 163 158 160 160 156 160 159 159 145 147 144 144
183 174 170 153 135 117 130 123 121 123 128 130 136 146 142 132 130 117 115 125 132 132 131 133 133 141 145 149 162 152 158 161 162 166 167 165 165 164 162 160 157 152 148
185 176 169 160 143 135 121 135 131 132 133 132 146 153 155 152 149 139 124 117 127 136 134 136 135 137 134 137 141 158 153 157 167 169 167 167 166 173 170 170 165 163 167
189 182 176 169 161 141 129 126 129 138 133 124 138 181 208 190 160 158 140 128 141 140 134 130 156 148 131 135 126 117 139 145 149 149 151 155 164 168 176 176 170 167 157
194 190 184 176 174 159 142 130 134 136 128 123 111 101 150 164 164 177 172 149 144 143 147 141 134 144 141 139 127 128 133 136 142 144 151 153 156 164 166 171 168 165 164
197 196 190 182 178 171 158 144 142 136 135 129 112 102 117 122 140 153 163 158 148 153 152 142 136 127 135 142 137 145 145 144 147 146 148 152 155 158 163 170 180 184 185
196 199 195 187 178 175 165 154 150 146 146 138 128 116 118 121 124 134 141 138 136 134 137 145 144 133 136 142 140 141 143 141 142 144 147 154 162 170 176 180 180 184 195
193 200 197 190 184 182 175 165 159 155 153 147 141 133 127 124 138 139 142 143 140 141 141 144 144 143 144 146 145 145 151 155 153 154 156 161 169 175 175 176 181 185 193
194 200 199 195 191 189 185 178 170 165 162 154 150 145 141 139 137 149 155 157 159 154 152 151 149 152 153 157 158 157 152 152 161 165 172 176 177 176 176 177 179 188 201
197 200 200 199 196 195 194 192 187 181 176 170 162 158 155 151 151 151 156 166 168 169 166 165 167 167 169 170 173 174 174 178 182 184 188 188 186 187 188 190 195 198 204
198 201 201 201 200 199 200 199 199 199 195 188 183 177 174 173 170 166 166 168 174 181 187 190 187 183 184 187 192 194 196 195 195 197 200 205 210 208 207 208 209 216 229
196 201 203 202 201 202 203 202 204 203 201 200 203 200 191 185 181 179 178 179 183 189 193 200 201 201 200 200 201 205 209 209 207 204 208 218 226 224 224 223 222 225 229
199 199 203 206 203 202 203 203 204 201 201 201 200 199 203 201 196 193 191 192 195 201 207 210 213 214 213 213 215 217 219 217 214 215 221 227 230 232 237 231 228 229 230
204 205 202 204 207 206 206 205 203 204 205 205 203 203 202 200 203 210 213 214 217 216 217 218 220 222 224 225 226 226 225 226 225 228 231 233 236 241 243 240 236 233 235
206 206 206 206 209 210 210 210 209 208 209 211 212 210 209 209 210 214 218 224 227 228 227 228 228 229 229 229 231 232 234 234 234 237 239 242 244 245 243 239 231 233 230
209 211 209 209 210 211 214 214 214 215 216 215 219 218 219 216 219 222 224 226 229 231 234 234 234 233 234 234 234 235 238 240 241 242 244 247 249 248 246 240 235 234 223
209 212 212 213 212 213 214 217 218 220 222 223 226 226 230 226 229 231 235 236 238 241 242 242 240 239 238 238 238 238 239 241 243 245 248 251 251 250 245 240 239 231 220
211 214 213 213 215 215 217 219 222 224 226 229 231 233 233 234 237 237 240 244 245 246 249 250 249 246 245 245 245 245 246 248 249 249 250 251 251 251 248 242 236 223 217
214 217 216 216 217 218 219 221 223 226 228 231 232 233 233 233 235 239 245 249 250 251 250 250 251 249 250 250 251 252 252 253 254 255 252 254 253 252 254 245 235 221 214
217 220 221 221 222 222 222 224 228 229 231 234 235 235 238 237 239 241 244 249 252 252 251 251 250 249 251 254 255 256 257 259 261 260 257 254 248 250 251 247 229 222 214
217 221 223 224 225 227 228 227 230 234 236 237 239 240 242 245 247 247 245 246 248 250 252 251 251 250 248 249 254 257 258 258 259 259 256 252 249 253 252 242 227 219 214
220 226 227 227 227 230 232 232 231 234 238 242 242 243 243 242 243 244 243 241 243 246 249 251 250 251 252 252 250 252 253 253 254 256 255 253 252 250 244 230 219 214 203
Wind_Speed_850mb
13 11 6 2 2 8 4 3 5 10 17 24 23 20 21 21 22 22 20 17 20 19 16 12 14 17 21 22 24 7 14 35 42 42 62 77 88 83 80 70 57 49 43
13 11 8 2 1 8 7 8 9 12 17 23 25 23 19 21 21 19 16 18 20 18 19 19 22 24 31 20 14 11 26 38 35 67 75 81 80 78 75 61 49 41 35
13 12 10 5 2 7 12 11 12 18 18 22 25 23 18 18 20 18 19 18 16 23 24 22 28 26 25 16 16 16 20 31 49 67 72 79 78 73 67 53 45 39 34
15 13 12 7 6 11 14 18 15 17 17 21 22 22 20 20 21 21 20 21 20 24 23 23 24 26 25 17 22 20 30 41 57 76 73 76 77 65 54 48 42 36 35
18 15 13 14 11 12 12 16 17 19 22 24 26 25 24 23 20 22 22 21 22 25 25 23 26 29 25 22 28 28 37 59 79 79 78 74 73 60 54 40 40 41 37
21 16 17 18 15 13 16 15 18 20 19 23 24 24 30 29 32 24 20 22 24 28 32 32 30 25 25 24 27 30 34 54 60 74 73 70 69 63 48 36 38 44 35
26 19 22 21 18 16 16 16 16 15 14 17 21 23 24 27 24 21 17 19 25 28 31 31 31 30 31 38 35 30 40 41 44 58 60 69 71 57 46 38 39 39 32
32 24 26 23 21 21 20 16 15 17 16 14 14 11 22 28 20 16 19 22 26 30 32 33 36 40 47 49 47 52 50 46 43 50 51 50 45 49 35 38 41 34 34
37 30 29 27 24 21 19 15 18 21 24 21 19 16 20 30 28 15 18 17 30 35 34 38 41 47 52 47 39 38 44 45 46 47 43 41 39 36 39 41 37 35 28
42 37 30 32 26 24 20 17 22 27 27 23 24 26 30 31 24 23 29 29 34 36 43 48 47 48 45 39 28 38 47 51 53 51 46 46 44 42 39 33 26 27 25
43 41 33 35 30 27 23 21 25 28 28 25 23 27 30 33 34 34 39 40 47 48 56 54 43 33 32 36 40 42 45 49 49 47 46 43 41 36 32 30 27 23 20
46 45 39 37 38 32 27 26 28 28 30 30 27 28 31 33 36 41 39 45 46 56 55 50 42 37 37 41 37 35 36 38 42 40 38 35 33 31 29 27 26 23 22
50 48 44 38 43 38 35 31 32 30 31 33 32 32 32 34 36 39 42 40 41 48 45 39 34 33 35 37 38 38 34 31 32 33 30 30 32 29 27 24 21 18 16
57 52 50 44 46 44 40 36 34 37 36 35 34 33 36 35 35 39 40 40 41 43 40 33 29 32 36 36 37 37 34 29 24 24 28 28 24 24 22 21 19 17 14
61 56 57 52 47 50 46 44 40 36 38 39 36 35 37 37 34 32 35 41 44 45 39 32 31 35 37 39 39 38 34 31 31 30 28 25 25 26 26 26 23 18 17
66 63 62 60 55 51 52 49 43 38 34 34 32 32 32 29 32 33 33 32 33 35 38 38 38 38 39 40 42 42 40 38 37 34 32 30 29 29 29 30 29 26 21
70 69 66 64 61 55 54 51 52 48 41 37 38 36 34 34 35 35 35 34 34 36 38 41 40 42 42 43 43 44 45 44 41 38 37 36 31 30 32 35 34 31 25
73 66 67 69 66 61 56 52 45 46 52 52 48 48 45 40 38 39 41 41 45 48 47 40 46 47 48 48 49 50 50 48 46 45 43 39 37 37 36 41 42 39 34
78 75 70 68 69 67 61 57 50 43 42 40 49 52 52 51 50 48 49 51 55 57 56 55 52 51 51 50 51 53 54 54 54 51 47 44 44 45 44 45 42 41 38
77 72 73 70 70 71 70 63 56 52 50 45 47 50 57 58 62 64 64 62 57 54 59 62 62 60 58 56 54 56 58 60 61 59 55 52 52 53 51 50 47 47 43
81 80 78 75 72 71 72 73 66 61 59 57 57 53 53 52 58 63 67 69 70 68 65 65 65 67 66 65 62 62 63 66 65 64 64 61 60 59 59 57 54 49 46
85 86 85 84 78 73 74 73 72 68 64 61 60 60 57 54 57 55 58 61 64 67 68 68 67 67 67 69 70 70 68 67 68 68 66 66 63 62 62 65 64 64 61
87 90 89 89 86 81 77 73 72 73 71 68 64 61 62 63 65 64 61 56 54 56 60 66 67 68 66 64 63 65 68 71 73 69 68 68 65 66 65 75 72 67 62
87 90 89 89 88 85 83 81 79 76 73 72 71 70 69 66 67 67 62 56 55 51 52 59 60 63 67 68 65 63 62 62 63 64 68 72 76 79 71 76 75 72 68
76 84 87 89 89 86 82 79 77 76 74 75 75 74 72 70 68 65 61 60 58 56 52 50 52 53 53 55 59 63 66 65 64 62 65 74 81 77 75 74 79 77 74
48 64 69 76 81 81 80 79 72 70 70 66 65 66 67 68 65 62 60 58 59 57 54 54 53 49 49 52 54 57 60 62 66 65 66 69 76 72 70 73 78 77 64
Wind_Direction_850mb
163 178 156 172 1 10 46 87 107 144 162 171 170 160 156 159 157 162 165 173 182 185 183 163 160 160 169 181 179 164 111 163 140 148 142 146 146 146 146 153 143 150 148
173 186 165 183 19 16 117 113 109 138 155 171 169 167 165 164 162 168 174 180 183 180 163 155 136 130 142 148 175 169 148 154 165 152 147 146 150 147 152 149 147 154 149
188 183 173 174 101 56 117 103 105 126 137 159 170 172 166 164 167 171 167 170 160 161 155 154 148 143 149 149 162 156 159 178 172 155 142 151 148 151 154 156 159 148 142
186 173 176 165 116 114 124 102 106 118 126 140 156 166 160 153 155 154 156 155 156 156 159 170 170 163 168 160 165 167 173 173 161 160 147 151 151 156 156 153 142 137 145
181 172 178 159 129 119 138 110 120 122 128 133 141 144 145 145 147 147 148 156 154 142 139 144 152 156 159 167 157 149 159 163 158 160 160 156 160 159 159 145 147 144 144
183 174 170 153 135 117 130 123 121 123 128 130 136 146 142 132 130 117 115 125 132 132 131 133 133 141 145 149 162 152 158 161 162 166 167 165 165 164 162 160 157 152 148
185 176 169 160 143 135 121 135 131 132 133 132 146 153 155 152 149 139 124 117 127 136 134 136 135 137 134 137 141 158 153 157 167 169 167 167 166 173 170 170 165 163 167
189 182 176 169 161 141 129 126 129 138 133 124 138 181 208 190 160 158 140 128 141 140 134 130 156 148 131 135 126 117 139 145 149 149 151 155 164 168 176 176 170 167 157
194 190 184 176 174 159 142 130 134 136 128 123 111 101 150 164 164 177 172 149 144 143 147 141 134 144 141 139 127 128 133 136 142 144 151 153 156 164 166 171 168 165 164
197 196 190 182 178 171 158 144 142 136 135 129 112 102 117 122 140 153 163 158 148 153 152 142 136 127 135 142 137 145 145 144 147 146 148 152 155 158 163 170 180 184 185
196 199 195 187 178 175 165 154 150 146 146 138 128 116 118 121 124 134 141 138 136 134 137 145 144 133 136 142 140 141 143 141 142 144 147 154 162 170 176 180 180 184 195
193 200 197 190 184 182 175 165 159 155 153 147 141 133 127 124 138 139 142 143 140 141 141 144 144 143 144 146 145 145 151 155 153 154 156 161 169 175 175 176 181 185 193
194 200 199 195 191 189 185 178 170 165 162 154 150 145 141 139 137 149 155 157 159 154 152 151 149 152 153 157 158 157 152 152 161 165 172 176 177 176 176 177 179 188 201
197 200 200 199 196 195 194 192 187 181 176 170 162 158 155 151 151 151 156 166 168 169 166 165 167 167 169 170 173 174 174 178 182 184 188 188 186 187 188 190 195 198 204
198 201 201 201 200 199 200 199 199 199 195 188 183 177 174 173 170 166 166 168 174 181 187 190 187 183 184 187 192 194 196 195 195 197 200 205 210 208 207 208 209 216 229
196 201 203 202 201 202 203 202 204 203 201 200 203 200 191 185 181 179 178 179 183 189 193 200 201 201 200 200 201 205 209 209 207 204 208 218 226 224 224 223 222 225 229
199 199 203 206 203 202 203 203 204 201 201 201 200 199 203 201 196 193 191 192 195 201 207 210 213 214 213 213 215 217 219 217 214 215 221 227 230 232 237 231 228 229 230
204 205 202 204 207 206 206 205 203 204 205 205 203 203 202 200 203 210 213 214 217 216 217 218 220 222 224 225 226 226 225 226 225 228 231 233 236 241 243 240 236 233 235
206 206 206 206 209 210 210 210 209 208 209 211 212 210 209 209 210 214 218 224 227 228 227 228 228 229 229 229 231 232 234 234 234 237 239 242 244 245 243 239 231 233 230
209 211 209 209 210 211 214 214 214 215 216 215 219 218 219 216 219 222 224 226 229 231 234 234 234 233 234 234 234 235 238 240 241 242 244 247 249 248 246 240 235 234 223
209 212 212 213 212 213 214 217 218 220 222 223 226 226 230 226 229 231 235 236 238 241 242 242 240 239 238 238 238 238 239 241 243 245 248 251 251 250 245 240 239 231 220
211 214 213 213 215 215 217 219 222 224 226 229 231 233 233 234 237 237 240 244 245 246 249 250 249 246 245 245 245 245 246 248 249 249 250 251 251 251 248 242 236 223 217
214 217 216 216 217 218 219 221 223 226 228 231 232 233 233 233 235 239 245 249 250 251 250 250 251 249 250 250 251 252 252 253 254 255 252 254 253 252 254 245 235 221 214
217 220 221 221 222 222 222 224 228 229 231 234 235 235 238 237 239 241 244 249 252 252 251 251 250 249 251 254 255 256 257 259 261 260 257 254 248 250 251 247 229 222 214
217 221 223 224 225 227 228 227 230 234 236 237 239 240 242 245 247 247 245 246 248 250 252 251 251 250 248 249 254 257 258 258 259 259 256 252 249 253 252 242 227 219 214
220 226 227 227 227 230 232 232 231 234 238 242 242 243 243 242 243 244 243 241 243 246 249 251 250 251 252 252 250 252 253 253 254 256 255 253 252 250 244 230 219 214 203